DLH25 EDDN-EDDC

Flight info

Callsign DLH25
Flight time 0h 25m
Altitude 20000
Route ERETO1G/28 ERETO Z715 ABKIS Q240 DRN
Aircraft A320/M-SDE3FGHIRWY/LB1

Departure

Time 2026-05-07 14:16
Airport Nuremberg Airport (EDDN)

Arrival

Time 2026-05-07 14:41
Airport Dresden Airport (EDDC)
Time Latitude Longitude Altitude Speed Heading
2026-05-07 13:28 49.49586 11.08204 1031 ft 0 kts 188°
2026-05-07 14:03 49.49584 11.08203 1031 ft 3 kts 188°
2026-05-07 14:03 49.49544 11.08238 1031 ft 8 kts 115°
2026-05-07 14:04 49.49549 11.08339 1032 ft 16 kts 39°
2026-05-07 14:04 49.49613 11.08475 1032 ft 16 kts 95°
2026-05-07 14:04 49.49596 11.08640 1034 ft 15 kts 99°
2026-05-07 14:04 49.49581 11.08789 1035 ft 13 kts 97°
2026-05-07 14:05 49.49571 11.08909 1037 ft 10 kts 99°
2026-05-07 14:05 49.49559 11.09019 1037 ft 10 kts 99°
2026-05-07 14:05 49.49549 11.09125 1038 ft 11 kts 99°
2026-05-07 14:05 49.49547 11.09146 1038 ft 0 kts 99°
2026-05-07 14:06 49.49544 11.09175 1038 ft 7 kts 99°
2026-05-07 14:06 49.49541 11.09199 1039 ft 0 kts 99°
2026-05-07 14:12 49.49532 11.09293 1041 ft 9 kts 96°
2026-05-07 14:12 49.49532 11.09296 1041 ft 0 kts 95°
2026-05-07 14:13 49.49531 11.09309 1041 ft 8 kts 95°
2026-05-07 14:13 49.49586 11.09471 1042 ft 22 kts 53°
2026-05-07 14:14 49.49691 11.09529 1044 ft 16 kts 304°
2026-05-07 14:14 49.49711 11.09428 1042 ft 0 kts 278°
2026-05-07 14:15 49.49711 11.09427 1042 ft 1 kts 278°
2026-05-07 14:15 49.49735 11.09168 1041 ft 64 kts 278°
2026-05-07 14:15 49.49845 11.08071 1030 ft 139 kts 278°
2026-05-07 14:15 49.50014 11.06328 1220 ft 179 kts 278°
2026-05-07 14:16 49.50203 11.04419 2082 ft 180 kts 278°
2026-05-07 14:16 49.50392 11.02476 2798 ft 191 kts 278°
2026-05-07 14:16 49.50600 11.00333 3213 ft 214 kts 278°
2026-05-07 14:16 49.50834 10.97930 3677 ft 239 kts 278°
2026-05-07 14:17 49.51115 10.95284 4430 ft 259 kts 284°
2026-05-07 14:17 49.52016 10.92866 5447 ft 269 kts 318°
2026-05-07 14:17 49.53693 10.91605 6584 ft 275 kts 349°
2026-05-07 14:17 49.55613 10.91442 7775 ft 279 kts
2026-05-07 14:18 49.57559 10.91717 8946 ft 283 kts
2026-05-07 14:18 49.59536 10.92092 10052 ft 288 kts
2026-05-07 14:18 49.61546 10.92419 11101 ft 293 kts
2026-05-07 14:18 49.63622 10.92662 11854 ft 310 kts
2026-05-07 14:19 49.65865 10.92829 12307 ft 335 kts
2026-05-07 14:19 49.68272 10.93121 12683 ft 359 kts 10°
2026-05-07 14:19 49.70733 10.94309 12971 ft 384 kts 25°
2026-05-07 14:19 49.73025 10.96618 13214 ft 404 kts 40°
2026-05-07 14:20 49.75179 10.99502 13740 ft 413 kts 41°
2026-05-07 14:20 49.77341 11.02479 14381 ft 418 kts 45°
2026-05-07 14:20 49.79158 11.06024 14999 ft 422 kts 55°
2026-05-07 14:20 49.80829 11.09787 15601 ft 426 kts 56°
2026-05-07 14:21 49.82476 11.13551 16159 ft 430 kts 56°
2026-05-07 14:21 49.84153 11.17418 16701 ft 434 kts 56°
2026-05-07 14:21 49.85836 11.21319 17211 ft 437 kts 56°
2026-05-07 14:21 49.87531 11.25251 17678 ft 440 kts 56°
2026-05-07 14:22 49.89238 11.29217 18115 ft 443 kts 56°
2026-05-07 14:22 49.90953 11.33197 18534 ft 445 kts 56°
2026-05-07 14:22 49.92679 11.37204 18893 ft 449 kts 56°
2026-05-07 14:22 49.94429 11.41269 18992 ft 454 kts 56°
2026-05-07 14:23 49.96173 11.45327 19010 ft 450 kts 56°
2026-05-07 14:23 49.97903 11.49361 19008 ft 448 kts 56°
2026-05-07 14:23 49.99629 11.53396 19008 ft 448 kts 56°
2026-05-07 14:23 50.01363 11.57456 19010 ft 455 kts 56°
2026-05-07 14:24 50.03120 11.61568 19009 ft 457 kts 56°
2026-05-07 14:24 50.04885 11.65704 19009 ft 458 kts 56°
2026-05-07 14:24 50.06646 11.69833 19009 ft 458 kts 56°
2026-05-07 14:24 50.08408 11.73973 19009 ft 459 kts 56°
2026-05-07 14:25 50.10166 11.78112 19009 ft 459 kts 56°
2026-05-07 14:25 50.11924 11.82263 19009 ft 459 kts 56°
2026-05-07 14:25 50.13685 11.86425 19010 ft 460 kts 56°
2026-05-07 14:25 50.15448 11.90596 19009 ft 461 kts 56°
2026-05-07 14:26 50.17214 11.94779 19009 ft 461 kts 56°
2026-05-07 14:26 50.18974 11.98954 19009 ft 460 kts 56°
2026-05-07 14:26 50.20728 12.03133 19009 ft 460 kts 57°
2026-05-07 14:26 50.22479 12.07316 19009 ft 460 kts 57°
2026-05-07 14:27 50.24231 12.11500 19009 ft 460 kts 57°
2026-05-07 14:27 50.25982 12.15691 19009 ft 461 kts 57°
2026-05-07 14:27 50.27730 12.19883 19009 ft 461 kts 57°
2026-05-07 14:27 50.29480 12.24089 19009 ft 460 kts 57°
2026-05-07 14:28 50.31203 12.28231 19010 ft 460 kts 57°
2026-05-07 14:28 50.32377 12.31057 19008 ft 458 kts 57°
2026-05-07 14:28 50.34695 12.36636 19008 ft 468 kts 58°
2026-05-07 14:28 50.35893 12.39521 19009 ft 469 kts 58°
2026-05-07 14:29 50.38288 12.45293 18828 ft 484 kts 58°
2026-05-07 14:29 50.39533 12.48300 18649 ft 491 kts 59°
2026-05-07 14:29 50.41426 12.52885 18315 ft 511 kts 60°
2026-05-07 14:29 50.43359 12.57591 17739 ft 513 kts 59°
2026-05-07 14:30 50.45307 12.62331 17165 ft 520 kts 60°
2026-05-07 14:30 50.47263 12.67100 16579 ft 519 kts 60°
2026-05-07 14:30 50.49179 12.71785 16080 ft 515 kts 60°
2026-05-07 14:30 50.51114 12.76506 15655 ft 512 kts 60°
2026-05-07 14:31 50.53030 12.81190 15278 ft 509 kts 60°
2026-05-07 14:31 50.54929 12.85845 14724 ft 502 kts 60°
2026-05-07 14:31 50.56799 12.90446 14079 ft 497 kts 60°
2026-05-07 14:31 50.58697 12.94961 13471 ft 493 kts 56°
2026-05-07 14:32 50.60928 12.99008 13238 ft 480 kts 49°
2026-05-07 14:32 50.63036 13.02616 13335 ft 419 kts 47°
2026-05-07 14:32 50.64930 13.05819 12850 ft 386 kts 47°
2026-05-07 14:32 50.66778 13.08804 12146 ft 374 kts 45°
2026-05-07 14:33 50.69529 13.12984 9728 ft 358 kts 43°
2026-05-07 14:33 50.71131 13.15832 9348 ft 337 kts 51°
2026-05-07 14:33 50.72662 13.18513 8984 ft 321 kts 44°
2026-05-07 14:33 50.74258 13.20884 8764 ft 311 kts 41°
2026-05-07 14:34 50.78132 13.26205 6865 ft 316 kts 42°
2026-05-07 14:34 50.79750 13.28624 6161 ft 325 kts 41°
2026-05-07 14:34 50.83085 13.33380 5105 ft 2774 kts 41°
2026-05-07 14:34 50.85726 13.37093 4058 ft 332 kts 40°
2026-05-07 14:35 50.87372 13.39497 3982 ft 306 kts 41°
2026-05-07 14:35 50.91831 13.45950 4051 ft 280 kts 41°
2026-05-07 14:35 50.93156 13.47961 4036 ft 251 kts 42°
2026-05-07 14:35 50.94352 13.49799 4001 ft 232 kts 40°
2026-05-07 14:36 50.97146 13.53807 4009 ft 213 kts 41°
2026-05-07 14:36 50.98255 13.55401 4103 ft 222 kts 41°
2026-05-07 14:36 50.99264 13.57155 4021 ft 209 kts 44°
2026-05-07 14:36 51.00271 13.58721 3952 ft 192 kts 41°
2026-05-07 14:37 51.01221 13.60053 3774 ft 172 kts 39°
2026-05-07 14:37 51.02940 13.62406 3328 ft 168 kts 39°
2026-05-07 14:37 51.03828 13.63620 3108 ft 170 kts 38°
2026-05-07 14:38 51.04736 13.64863 2863 ft 173 kts 39°
2026-05-07 14:38 51.05651 13.66115 2620 ft 174 kts 39°
2026-05-07 14:38 51.06525 13.67313 2401 ft 156 kts 38°
2026-05-07 14:38 51.07314 13.68396 2183 ft 145 kts 38°
2026-05-07 14:39 51.08064 13.69423 1991 ft 140 kts 38°
2026-05-07 14:39 51.08801 13.70433 1801 ft 139 kts 39°
2026-05-07 14:39 51.09528 13.71431 1602 ft 138 kts 39°
2026-05-07 14:39 51.10257 13.72432 1390 ft 138 kts 38°
2026-05-07 14:40 51.10985 13.73431 1204 ft 137 kts 38°
2026-05-07 14:40 51.11715 13.74433 1003 ft 138 kts 39°
2026-05-07 14:40 51.12444 13.75435 818 ft 139 kts 39°
2026-05-07 14:40 51.13135 13.76385 749 ft 118 kts 41°
2026-05-07 14:41 51.13632 13.77071 732 ft 80 kts 41°
2026-05-07 14:41 51.14019 13.77604 718 ft 68 kts 41°
2026-05-07 14:41 51.14348 13.78052 716 ft 52 kts 41°
2026-05-07 14:41 51.14366 13.78084 714 ft 7 kts 61°
2026-05-07 14:42 51.14311 13.78259 705 ft 23 kts 147°
2026-05-07 14:42 51.14217 13.78354 702 ft 3 kts 182°
2026-05-07 14:42 51.14211 13.78343 704 ft 0 kts 226°
2026-05-07 14:42 51.14207 13.78338 704 ft 5 kts 220°
2026-05-07 14:43 51.14160 13.78275 713 ft 7 kts 221°
2026-05-07 14:43 51.14137 13.78243 716 ft 2 kts 221°
2026-05-07 14:43 51.14111 13.78207 713 ft 13 kts 221°
2026-05-07 14:43 51.14003 13.78060 714 ft 25 kts 219°
2026-05-07 14:44 51.13875 13.77887 717 ft 22 kts 221°
2026-05-07 14:44 51.13790 13.77767 718 ft 5 kts 221°
2026-05-07 14:44 51.13792 13.77769 719 ft 13 kts 221°
2026-05-07 14:44 51.13618 13.77529 724 ft 36 kts 221°
2026-05-07 14:45 51.13441 13.77286 728 ft 31 kts 218°
2026-05-07 14:45 51.13271 13.77052 735 ft 23 kts 223°